Location: ???????
(37.6677°N, 23.9961°E)
Time: 00:15:22
(UTC+00:00)

Daily predictions for brighter satellites

Satellite Brightness Start Highest point End
(mag) Time Altitude Azimuth Time Altitude Azimuth Time Altitude Azimuth
Cosmos 2082 Rocket 4.2 00:56:56 23° NE 00:56:56 23° NE 00:59:14 10° NE
Atlas Centaur 2 4.1 01:15:23 32° SE 01:15:23 32° SE 01:19:52 10° ESE
ATLAS CENTAUR R/B 4.3 01:32:08 14° N 01:32:08 14° N 01:32:57 10° NNE
Cosmos 1980 Rocket 2.8 01:41:01 51° E 01:41:01 51° E 01:45:42 10° SE
SL-19 R/B 4.5 01:41:31 10° NNE 01:47:12 75° NE 01:47:12 75° NE
Cosmos 2173 Rocket 4.2 01:48:39 49° SSE 01:50:08 64° E 01:56:09 10° NNE
ATLAS 3B CENTAUR R/B 3.8 01:55:20 44° SSW 01:57:31 49° S 02:09:13 10° ESE
Cosmos 2369 4.1 02:00:11 52° SSE 02:00:11 52° SSE 02:04:22 10° SSE
SL-16 R/B 4.4 02:00:03 10° N 02:04:32 23° ENE 02:08:59 10° ESE
ALOS 3.9 02:03:09 10° N 02:05:10 25° N 02:05:10 25° N
METEOR-M 4.0 02:09:06 10° NNE 02:14:29 88° ESE 02:15:39 57° S
IRS-P3 4.1 02:11:50 10° NNE 02:17:11 78° ESE 02:19:30 35° S
Cosmos 1331 Rocket 4.0 02:19:58 48° S 02:21:25 79° ESE 02:26:36 10° NNE
Meteor 1-27 Rocket 4.1 02:28:05 44° WNW 02:28:05 44° WNW 02:33:14 10° N
CENTAUR R/B 2.6 02:27:13 46° WNW 02:27:52 48° NW 02:34:26 10° NNE
CZ-2C R/B 2.7 02:25:09 10° SSE 02:30:21 77° ENE 02:35:42 10° N
Cosmos 2100 Rocket 4.0 02:30:37 45° WSW 02:31:58 54° W 02:37:59 10° N
Lacrosse 5 rocket 3.6 02:29:57 10° S 02:33:35 24° ESE 02:37:14 10° ENE
Cosmos 2016 Rocket 4.0 02:27:26 10° S 02:33:48 89° W 02:40:13 10° N
YAOGAN 6 2.8 02:30:58 10° NNE 02:34:34 66° E 02:35:28 45° SSE
BREEZE-M DEB (TANK) 4.5 02:34:33 11° N 02:35:00 11° N 02:36:14 10° NNE
ARIANE 5 R/B 2.3 02:30:43 10° N 02:35:43 72° WNW 02:37:43 36° SSW
SL-08 R/B 4.5 02:30:20 10° S 02:36:24 81° E 02:42:33 10° N
Lacrosse 4 Rocket 2.8 02:33:07 10° NNW 02:37:18 41° ENE 02:41:30 10° SE
Cosmos 1110 Rocket 3.9 02:36:17 47° SW 02:37:39 66° WNW 02:42:49 10° NNE
Cosmos 2082 Rocket 3.3 02:38:50 26° NW 02:38:50 26° NW 02:42:55 10° N
Cosmos 1484 Rocket 2.7 02:34:43 10° N 02:38:43 86° W 02:39:41 50° SSW
CZ-2C R/B 2.2 02:37:42 27° N 02:39:03 81° W 02:45:30 10° S
Helios 1B rocket 3.5 02:36:31 10° N 02:39:01 31° NNW 02:39:01 31° NNW
ERS-1 4.4 02:35:16 10° N 02:40:27 71° WNW 02:43:37 24° SSW
CZ-2C R/B 3.8 02:35:29 10° NNE 02:41:02 57° E 02:46:17 10° S
Meteor 1-18 Rocket 4.3 02:37:32 10° S 02:43:13 79° E 02:48:51 10° NNE
Cosmos 1452 Rocket 4.0 02:43:49 38° WNW 02:43:58 38° WNW 02:48:53 10° N
Meteor 1-29 3.3 02:42:57 10° NNE 02:46:14 62° E 02:48:32 18° S
Okean 1 4.2 02:47:37 33° NW 02:47:37 33° NW 02:50:21 10° N
Cosmos 2360 Rocket 4.5 02:44:07 10° N 02:48:39 24° ENE 02:53:09 10° ESE
CZ-2C R/B 3.5 02:47:47 10° NNW 02:51:08 26° NW 02:51:08 26° NW
Envisat 2.9 02:47:12 10° NNE 02:52:18 87° WNW 02:57:23 10° SSW
Cosmos 1816 Rocket 4.3 02:46:49 10° N 02:53:00 80° W 02:59:06 10° S
Cosmos 1869 Rocket 3.7 02:49:05 10° N 02:53:31 73° E 02:57:51 10° SSE
Cosmos 2061 Rocket 3.9 02:47:40 10° SSW 02:53:51 74° W 03:00:03 10° N
USA 276 2.6 02:54:29 44° NNW 02:54:29 44° NNW 02:57:11 10° NE
Delta 2 Rocket 3.2 02:56:11 43° SSW 02:56:33 45° SSW 02:59:46 10° ESE
SL-24 R/B - RUBIN 2 4.4 02:57:58 29° WNW 02:58:20 30° NW 03:02:10 10° N
DELTA 2 R/B (1) 3.5 02:56:59 28° WNW 03:00:01 89° NNE 03:05:39 10° ESE
Atlas Centaur 2 4.0 02:57:55 21° WSW 03:01:02 27° SSW 03:07:18 10° SSE
NOSS 3-2 (A) 4.3 03:01:34 23° WNW 03:03:13 27° NW 03:08:23 10° NNE
NOSS 3-2 (C) 3.5 03:01:04 28° WSW 03:03:38 47° NW 03:09:32 10° NNE
Meteor 2-4 Rocket 3.6 03:00:16 10° SSW 03:06:02 76° W 03:11:41 10° N
BREEZE-M DEB (TANK) 3.0 03:04:00 21° NW 03:06:11 73° NE 03:15:19 10° ESE
IKONOS-2 4.4 03:03:22 10° S 03:07:32 65° WSW 03:11:46 10° NNW
H-2A R/B 2.5 03:04:45 10° N 03:08:26 86° WNW 03:12:06 10° SSW
DELTA 2 DEB (DPAF) 4.3 03:06:11 10° S 03:10:24 47° W 03:14:40 10° NNW
PSLV R/B 3.6 03:07:20 10° NNE 03:11:39 80° ESE 03:15:53 10° S
Cosmos 2233 Rocket 4.0 03:08:51 10° SSW 03:15:09 71° W 03:21:28 10° N
Cosmos 1933 Rocket 4.4 03:11:32 10° NNW 03:15:17 28° W 03:19:00 10° SSW
CZ-2D R/B 4.2 03:12:31 10° N 03:16:00 29° WNW 03:17:46 21° WSW
SL-08 R/B 3.4 03:12:12 10° S 03:16:44 52° W 03:21:23 10° NNW
Genesis I 4.1 03:13:08 10° SSW 03:17:01 52° ESE 03:20:57 10° NE
SL-8 R/B 4.3 03:12:50 11° SW 03:17:19 53° SE 03:21:58 10° ENE
Cosmos 2322 Rocket 2.7 03:12:42 10° NNW 03:18:21 64° ENE 03:23:56 10° SSE
USA 238 DEB 3.9 03:14:48 18° WSW 03:19:22 45° NW 03:25:48 10° NNE
USA 238 3.9 03:14:52 17° WSW 03:19:28 45° NW 03:25:55 10° NNE
X-37B 0.3 03:18:09 25° WNW 03:19:40 82° NNE 03:22:33 10° ESE
H-2A ROCKET BODY 4.1 03:15:41 14° SW 03:20:28 30° S 03:38:45 10° SE
Cosmos 1975 2.9 03:19:34 10° NNW 03:23:27 52° W 03:27:17 10° S
Cosmos 1980 Rocket 3.4 03:23:07 17° W 03:23:41 18° W 03:27:16 10° SW
BREEZE M DEB (TANK) 4.4 03:16:14 16° W 03:24:47 39° NNW 03:28:48 10° NE
COSMOS 2455 4.0 03:20:28 10° NNW 03:26:16 46° ENE 03:32:00 10° SE
CZ-2C R/B 2.7 03:24:24 10° N 03:28:12 65° WNW 03:32:03 10° SSW
Tsikada Rocket 4.0 03:22:51 10° NNW 03:28:58 57° W 03:34:59 10° SSW
Cosmos 1242 Rocket 2.2 03:25:49 10° NNW 03:29:13 72° W 03:32:33 10° S
SKYMED 2 4.1 03:28:04 10° SSE 03:32:20 63° ENE 03:36:39 10° N
Cosmos 1805 3.6 03:33:08 10° N 03:37:00 70° E 03:40:50 10° SSE
GP-B 4.2 03:33:48 10° SW 03:37:19 23° W 03:40:51 10° NNW
CZ-4B R/B 3.6 03:32:38 10° NNE 03:37:57 90° SSW 03:43:12 10° SSW
FALCON 9 DEB 2.8 03:36:53 10° SW 03:40:03 78° NW 03:43:14 10° NE
Meteor 1-13 Rocket 4.5 03:37:56 10° S 03:43:32 75° E 03:49:04 10° NNE
Landsat 4 4.4 03:41:15 10° NNE 03:44:53 57° ESE 03:48:29 10° S
SL-27 R/B 3.6 03:42:13 10° S 03:45:34 47° ESE 03:48:57 10° NNE
USA 234 3.3 03:41:03 10° NE 03:47:36 84° NW 03:54:08 10° SW
Cosmos 1733 3.0 03:44:35 10° NNW 03:48:17 72° W 03:52:00 10° S
SL-16 R/B 2.4 03:43:26 10° NW 03:48:51 48° WSW 03:54:15 10° S
Cosmos 1862 Rocket 3.6 03:45:13 10° SSW 03:49:40 67° W 03:54:07 10° N
NOAA 11 4.4 03:45:25 10° N 03:50:38 47° WNW 03:55:49 10° SW
ATLAS 3B CENTAUR R/B 4.5 03:43:40 10° WSW 03:53:52 48° S 04:06:04 10° ESE
USA 290 2.5 03:51:25 10° NNW 03:54:37 72° ENE 03:57:48 10° SSE
Cosmos 1766 4.2 03:53:37 10° N 03:57:30 55° E 04:01:21 10° SSE
Cosmos 2228 Rocket 4.5 03:57:19 10° WSW 04:00:28 19° WNW 04:03:38 10° NNW
SJ 16-02 3.8 03:56:53 10° N 04:00:33 26° ENE 04:04:13 10° ESE
CZ-3 R/B 3.2 03:40:48 10° W 04:01:50 51° SSW 04:08:04 10° ESE
